Stations météo

réclame
Mon MeteoGroup
Besancon, France (7288): Température de l'air & dewpoint: 18.10.2017 09:00:00 - 24.10.2017 09:00:00 (CEST)Besancon, France (7288): Température de l'air 5cm: 18.10.2017 09:00:00 - 24.10.2017 09:00:00 (CEST)Besancon, France (7288): Température de l'air -20cm & Température de l'air -100cm: 18.10.2017 09:00:00 - 24.10.2017 09:00:00 (CEST)Besancon, France (7288): Vitesse du vent & gusts: 18.10.2017 09:00:00 - 24.10.2017 09:00:00 (CEST)Besancon, France (7288): Direction du vent: 18.10.2017 09:00:00 - 24.10.2017 09:00:00 (CEST)Besancon, France (7288): reduced air pressure: 18.10.2017 09:00:00 - 24.10.2017 09:00:00 (CEST)Besancon, France (7288): visibility: 18.10.2017 09:00:00 - 24.10.2017 09:00:00 (CEST)Besancon, France (7288): Ensoleillement: 18.10.2017 09:00:00 - 24.10.2017 09:00:00 (CEST)Besancon, France (7288): Quantités de précipitations: 18.10.2017 09:00:00 - 24.10.2017 09:00:00 (CEST)
Date & Time tt [°C] td [°C] tt 5cm [°C] tt -20cm [°C] tt -100cm [°C] ff [km/h] ff [knt] fx [km/h] fx [knt] dd ppp [hPa] vv [km] sd [min] rr [mm]
24.10.2017 09:00:00 9,1 8,3 7,1 13,1 15,1 0 0 2 1 N 1027,5 15 0 0,0
24.10.2017 08:00:00 9,1 7,9 7,4 13,1 15,1 0 0 0 0 N 1027,1 15 0 0,0
24.10.2017 07:00:00 9,1 8,3 9,0 13,2 15,1 0 0 0 0 N 1027,2 10 0 0,0
24.10.2017 06:00:00 9,0 8,2 8,8 13,2 15,1 0 0 5 3 N 1027,1 10 0 0,0
24.10.2017 05:00:00 8,7 8,1 8,3 13,2 15,1 0 0 0 0 N 1027,2 - 0 0,0
24.10.2017 04:00:00 8,6 8,3 5,8 13,3 15,1 0 0 3 2 N 1027,2 - 0 0,0
24.10.2017 03:00:00 8,6 7,8 5,4 13,3 15,1 0 0 4 2 N 1027,2 - 0 0,0
24.10.2017 02:00:00 9,9 8,2 9,3 13,3 15,1 0 0 8 4 N 1027,3 - 0 0,0
24.10.2017 01:00:00 9,8 8,4 9,6 13,3 15,1 0 0 6 3 N 1027,5 - 0 0,0
24.10.2017 00:00:00 9,9 8,2 9,7 13,3 15,1 2 1 8 4 S 1027,7 - 0 0,0
23.10.2017 23:00:00 10,0 8,4 9,7 13,4 15,2 3 1 9 5 SSW 1027,5 - 0 0,0
23.10.2017 22:00:00 10,0 8,4 9,5 13,3 15,2 3 1 9 5 SSW 1027,2 - 0 0,0
23.10.2017 21:00:00 10,0 8,6 9,4 13,3 15,1 4 2 11 6 SSW 1026,9 - 0 0,0
23.10.2017 20:00:00 10,1 8,7 9,3 13,3 15,2 5 3 14 8 SSW 1026,9 - 0 0,0
23.10.2017 19:00:00 10,0 8,6 9,4 13,3 15,1 4 2 18 10 SSW 1026,4 - 0 0,0
23.10.2017 18:00:00 10,1 8,9 9,8 13,3 15,2 7 4 14 8 SSW 1026,1 - 0 0,0
23.10.2017 17:00:00 10,2 8,8 9,9 13,3 15,2 6 3 17 9 SSW 1026,0 4,0 0 0,0
23.10.2017 16:00:00 10,1 8,9 10,0 13,2 15,2 5 3 15 8 SW 1026,0 4,0 0 0,2
23.10.2017 15:00:00 10,3 8,6 10,5 13,2 15,2 7 4 16 8 SW 1026,1 4,0 0 0,4
23.10.2017 14:00:00 10,1 8,7 10,4 13,2 15,2 7 4 14 8 SW 1026,1 4,0 0 0,0
23.10.2017 13:00:00 9,7 8,5 9,7 13,2 15,2 6 3 18 10 SW 1026,2 4,0 0 0,0
23.10.2017 12:00:00 9,1 7,7 9,5 13,2 15,2 8 5 19 10 SW 1026,0 4,0 0 0,0
23.10.2017 11:00:00 8,6 7,5 8,5 13,3 15,2 6 3 15 8 SSW 1025,7 3,0 0 0,0
23.10.2017 10:00:00 8,2 7,4 7,9 13,3 15,2 5 3 21 11 SW 1025,7 2,0 0 0,0
23.10.2017 09:00:00 7,9 7,3 7,7 13,3 15,2 7 4 18 10 SW 1024,8 1,5 0 0,2
23.10.2017 08:00:00 7,8 7,4 7,6 13,4 15,2 8 4 18 10 SW 1024,5 1,5 0 1,0
23.10.2017 07:00:00 7,7 7,1 7,5 13,5 15,2 9 5 20 11 SSW 1024,2 1,5 0 0,0
23.10.2017 06:00:00 7,6 7,2 7,3 13,5 15,2 10 5 22 12 SW 1023,9 1,5 0 0,0
23.10.2017 05:00:00 7,4 6,8 7,3 13,6 15,2 10 5 23 12 SSW 1023,7 - 0 0,4
23.10.2017 04:00:00 7,4 6,8 7,0 13,7 15,2 8 4 21 11 SSW 1023,7 - 0 0,6
23.10.2017 03:00:00 7,3 6,6 7,0 13,7 15,2 9 5 20 11 SSW 1024,1 - 0 1,0
23.10.2017 02:00:00 7,5 6,0 6,9 13,8 15,2 6 4 20 11 SW 1024,0 - 0 0,2
23.10.2017 01:00:00 7,6 5,4 6,7 13,8 15,2 6 4 19 11 SW 1024,1 - 0 0,0
23.10.2017 00:00:00 7,6 5,2 6,0 13,9 15,2 8 4 16 9 SW 1024,0 - 0 0,0
22.10.2017 23:00:00 7,5 5,1 5,7 13,9 15,2 7 4 17 9 SSW 1023,9 - 0 0,0
22.10.2017 22:00:00 7,6 5,2 6,0 14,0 15,2 8 4 16 9 SSW 1023,6 - 0 0,0
22.10.2017 21:00:00 7,5 5,5 5,6 14,0 15,2 6 3 17 9 SSW 1023,1 - 0 0,0
22.10.2017 20:00:00 7,9 5,9 6,2 14,0 15,2 9 5 18 10 SSW 1022,8 - 0 0,0
22.10.2017 19:00:00 8,4 6,2 7,2 14,0 15,2 5 3 16 9 SSW 1022,1 - 0 0,0
22.10.2017 18:00:00 8,9 6,5 7,8 14,0 15,2 4 2 29 15 SSW 1021,5 - 2 1,0
22.10.2017 17:00:00 10,6 6,2 8,5 14,0 15,2 4 2 24 13 SW 1020,6 - 16 0,4
22.10.2017 16:00:00 10,8 6,2 8,9 14,0 15,2 11 6 24 13 SW 1020,5 - 5 0,0
22.10.2017 15:00:00 9,6 5,8 8,4 13,9 15,2 13 7 39 21 W 1020,6 3,5 24 0,8
22.10.2017 14:00:00 11,1 6,8 9,3 14,0 15,2 10 5 32 18 SW 1020,7 9 11 0,8
22.10.2017 13:00:00 11,5 5,1 11,5 14,0 15,2 11 6 35 19 WSW 1021,2 30 17 0,0
22.10.2017 12:00:00 10,9 5,8 10,9 14,0 15,2 13 7 32 18 SW 1021,7 30 16 0,0
22.10.2017 11:00:00 9,9 6,2 10,3 14,2 15,3 13 7 32 17 SSW 1022,0 20 0 0,0
22.10.2017 10:00:00 9,6 6,3 8,7 14,2 15,3 14 8 30 16 SSW 1022,3 25 31 0,0
22.10.2017 09:00:00 8,8 5,9 7,8 14,3 15,2 13 7 29 16 SW 1021,9 25 4 0,0
22.10.2017 08:00:00 8,7 5,8 7,7 14,4 15,2 14 7 32 17 SW 1021,8 25 0 0,0
22.10.2017 07:00:00 8,6 6,2 7,7 14,4 15,2 13 7 29 16 SSW 1021,6 25 0 0,0
22.10.2017 06:00:00 8,9 6,3 7,9 14,5 15,2 13 7 28 15 SSW 1021,9 25 0 0,0
22.10.2017 05:00:00 9,5 6,6 8,6 14,6 15,2 13 7 35 19 SSW 1021,6 - 0 0,0
22.10.2017 04:00:00 10,2 6,9 9,2 14,6 15,2 15 8 33 18 SSW 1021,9 - 0 0,0
22.10.2017 03:00:00 10,8 7,3 9,9 14,7 15,2 15 8 31 17 SSW 1022,0 - 0 0,0
22.10.2017 02:00:00 11,5 7,4 10,8 14,7 15,2 11 6 34 18 SSW 1021,6 - 0 0,0
22.10.2017 01:00:00 11,7 7,8 10,4 14,8 15,2 9 5 24 13 SSW 1021,4 - 0 0,0
22.10.2017 00:00:00 11,6 8,1 10,3 14,8 15,2 7 4 27 15 S 1021,4 - 0 0,0
21.10.2017 23:00:00 11,6 8,4 10,0 14,9 15,3 8 4 24 13 S 1021,0 - 0 0,0
21.10.2017 22:00:00 11,1 8,8 10,0 14,9 15,3 6 4 22 12 SSW 1020,6 - 0 0,0
21.10.2017 21:00:00 10,6 9,2 10,0 14,9 15,3 4 2 19 10 S 1020,9 - 0 1,0
21.10.2017 20:00:00 10,8 9,6 10,2 14,9 15,2 4 2 23 12 S 1020,7 - 0 1,8
21.10.2017 19:00:00 11,5 9,7 10,6 14,9 15,3 5 3 22 12 S 1020,0 - 0 1,4
21.10.2017 18:00:00 13,0 10,9 11,9 14,8 15,2 6 4 28 15 SW 1019,4 - 0 0,2
21.10.2017 17:00:00 13,6 10,2 12,2 14,7 15,3 8 4 39 21 W 1018,4 12 0 0,0
21.10.2017 16:00:00 16,0 13,7 14,8 14,7 15,3 6 3 35 19 WSW 1016,9 10 0 0,4
21.10.2017 15:00:00 18,6 12,3 18,3 14,6 15,2 13 7 34 18 SW 1016,5 12 0 0,0
21.10.2017 14:00:00 19,6 13,1 20,4 14,5 15,3 14 8 39 21 SW 1016,7 25 1 0,0
21.10.2017 13:00:00 19,6 12,6 20,9 14,5 15,3 17 9 47 25 SW 1017,0 25 34 0,0
21.10.2017 12:00:00 19,6 12,4 22,4 14,5 15,2 16 9 40 22 SSW 1016,8 30 60 0,0
21.10.2017 11:00:00 18,6 12,3 17,8 14,5 15,2 7 4 25 13 SSW 1017,1 30 56 0,0
21.10.2017 10:00:00 17,1 12,2 15,1 14,6 15,3 7 4 19 11 SSW 1017,1 30 25 0,0
21.10.2017 09:00:00 15,3 12,2 10,5 14,6 15,2 7 4 18 10 SSW 1017,7 20 2 0,0
21.10.2017 08:00:00 13,9 12,3 10,9 14,6 15,3 3 2 8 5 S 1017,8 20 0 0,0
21.10.2017 07:00:00 12,8 11,4 8,9 14,6 15,3 0 0 2 1 N 1017,8 20 0 0,0
21.10.2017 06:00:00 14,3 12,0 10,7 14,6 15,3 0 0 8 5 N 1017,1 20 0 0,0
21.10.2017 05:00:00 15,5 12,3 14,3 14,6 15,2 2 1 8 4 SSW 1017,2 - 0 0,0
21.10.2017 04:00:00 15,3 12,2 13,4 14,6 15,3 0 0 11 6 N 1017,5 - 0 0,0
21.10.2017 03:00:00 13,8 12,4 12,9 14,7 15,3 0 0 6 3 N 1017,8 - 0 0,0
21.10.2017 02:00:00 13,5 12,2 12,9 14,6 15,3 0 0 2 1 N 1018,1 - 0 0,0
21.10.2017 01:00:00 13,7 12,4 11,4 14,7 15,3 0 0 0 0 N 1017,9 - 0 0,0
21.10.2017 00:00:00 14,1 12,7 12,1 14,7 15,3 0 0 0 0 N 1017,9 - 0 0,0
20.10.2017 23:00:00 14,6 12,5 12,5 14,7 15,3 0 0 2 1 N 1017,7 - 0 0,0
20.10.2017 22:00:00 15,3 12,4 13,9 14,6 15,3 0 0 7 4 N 1017,5 - 0 0,0
20.10.2017 21:00:00 15,5 12,4 13,8 14,6 15,3 0 0 3 2 N 1017,1 - 0 0,0
20.10.2017 20:00:00 16,0 12,5 14,0 14,6 15,3 0 0 5 3 N 1017,1 - 0 0,0
20.10.2017 19:00:00 16,4 12,4 15,1 14,6 15,3 2 1 8 4 S 1016,8 - 0 0,0
20.10.2017 18:00:00 17,0 12,3 16,5 14,5 15,3 4 2 15 8 SSW 1016,8 - 0 0,0
20.10.2017 17:00:00 17,4 11,9 17,4 14,5 15,3 9 5 22 12 SW 1017,0 15 0 0,0
20.10.2017 16:00:00 17,2 11,9 17,6 14,4 15,3 7 4 22 12 SSW 1016,8 15 0 0,0
20.10.2017 15:00:00 16,3 11,7 14,4 14,4 15,3 5 3 21 11 SSW 1016,9 12 0 0,2
20.10.2017 14:00:00 15,9 11,1 15,5 14,4 15,3 10 5 21 11 SSW 1017,4 10 0 0,0
20.10.2017 13:00:00 14,9 11,3 13,2 14,4 15,3 5 3 13 7 SSW 1017,6 12 0 0,0
20.10.2017 12:00:00 13,8 11,3 12,8 14,4 15,3 4 2 14 7 S 1017,5 12 0 0,2
20.10.2017 11:00:00 14,5 10,3 12,7 14,4 15,3 6 3 24 13 WSW 1016,8 15 0 0,2
20.10.2017 10:00:00 16,2 8,2 13,8 14,5 15,3 8 5 24 13 SSW 1015,7 15 0 0,0
20.10.2017 09:00:00 16,9 6,4 13,6 14,5 15,3 6 4 14 8 SSW 1014,6 15 0 0,0
20.10.2017 08:00:00 15,9 7,1 12,4 14,5 15,3 5 3 16 9 SSW 1013,9 15 0 0,0
20.10.2017 07:00:00 17,2 7,0 13,2 14,5 15,3 8 4 23 13 SSW 1013,8 10 0 0,0
20.10.2017 06:00:00 15,1 7,6 12,3 14,6 15,3 3 2 10 6 SSW 1013,9 10 0 0,0
20.10.2017 05:00:00 14,6 7,6 12,0 14,6 15,3 0 0 5 3 N 1013,7 - 0 0,0
20.10.2017 04:00:00 13,8 7,6 11,0 14,7 15,3 0 0 5 3 N 1013,8 - 0 0,0
20.10.2017 03:00:00 12,0 8,3 9,3 14,7 15,3 2 1 6 3 N 1014,2 - 0 0,0
20.10.2017 02:00:00 11,2 7,9 7,0 14,8 15,3 0 0 4 2 N 1014,2 - 0 0,0
20.10.2017 01:00:00 11,1 8,3 7,2 14,8 15,3 3 1 5 3 NNE 1013,7 - 0 0,0
20.10.2017 00:00:00 11,7 8,5 7,4 14,8 15,3 0 0 4 2 N 1013,8 - 0 0,0
19.10.2017 23:00:00 12,6 9,1 9,5 14,8 15,3 0 0 5 3 N 1013,7 - 0 0,0
19.10.2017 22:00:00 13,0 9,6 8,7 14,8 15,3 0 0 5 3 N 1013,5 - 0 0,0
19.10.2017 21:00:00 13,7 10,5 9,1 14,8 15,4 0 0 3 2 N 1013,1 - 0 0,0
19.10.2017 20:00:00 15,6 10,4 11,2 14,7 15,3 0 0 4 2 N 1012,8 - 0 0,0
19.10.2017 19:00:00 16,9 10,7 14,2 14,7 15,3 2 1 4 2 NNE 1012,3 - 2 0,0
19.10.2017 18:00:00 17,9 10,8 15,7 14,5 15,3 0 0 3 2 N 1012,1 - 0 0,0
19.10.2017 17:00:00 18,8 9,6 17,6 14,4 15,4 0 0 6 3 N 1011,7 20 0 0,0
19.10.2017 16:00:00 19,8 9,4 19,1 14,3 15,3 2 1 10 5 NNW 1011,8 20 5 0,0
19.10.2017 15:00:00 22,1 8,2 26,3 14,2 15,3 3 2 10 5 W 1011,9 20 34 0,0
19.10.2017 14:00:00 21,9 8,7 27,9 14,1 15,4 0 0 6 4 N 1012,2 20 49 0,0
19.10.2017 13:00:00 20,2 7,5 23,5 14,1 15,3 0 0 6 3 N 1013,2 20 34 0,0
19.10.2017 12:00:00 17,7 9,1 18,7 14,1 15,3 0 0 3 1 N 1014,1 20 5 0,0
19.10.2017 11:00:00 14,6 9,8 14,4 14,1 15,3 0 0 5 3 N 1014,3 20 1 0,0
19.10.2017 10:00:00 12,7 9,1 10,6 14,2 15,4 3 2 5 3 N 1014,5 - 0 0,0
19.10.2017 09:00:00 11,3 8,5 8,6 14,2 15,3 0 0 6 3 N 1014,5 - 0 0,0
19.10.2017 08:00:00 10,3 8,2 6,7 14,3 15,3 3 1 6 4 N 1014,1 20 0 0,0
19.10.2017 07:00:00 9,7 8,5 6,1 14,3 15,3 0 0 5 3 N 1014,0 - 0 0,0
19.10.2017 06:00:00 10,0 8,3 6,5 14,4 15,3 0 0 5 3 N 1014,1 20 0 0,0
19.10.2017 05:00:00 10,5 8,4 7,0 14,5 15,4 0 0 3 1 N 1014,1 - 0 0,0
19.10.2017 04:00:00 10,9 8,8 6,9 14,5 15,4 0 0 4 2 N 1014,1 - 0 0,0
19.10.2017 03:00:00 11,7 8,9 8,3 14,5 15,4 3 1 6 3 NNE 1014,2 - 0 0,0
19.10.2017 02:00:00 11,5 8,9 8,4 14,6 15,4 2 1 6 3 N 1014,2 - 0 0,0
19.10.2017 01:00:00 12,5 9,3 9,0 14,6 15,4 3 1 5 3 NNE 1014,4 - 0 0,0
19.10.2017 00:00:00 11,7 9,3 8,1 14,7 15,4 3 1 6 3 NNE 1014,8 - 0 0,0
18.10.2017 23:00:00 11,8 9,2 7,7 14,7 15,4 3 2 5 3 NNE 1014,7 - 0 0,0
18.10.2017 22:00:00 12,1 9,7 7,6 14,7 15,4 2 1 5 3 NNE 1014,5 - 0 0,0
18.10.2017 21:00:00 13,2 10,0 8,2 14,6 15,4 2 1 5 3 NNE 1014,0 - 0 0,0
18.10.2017 20:00:00 14,3 10,3 9,0 14,6 15,4 3 1 5 3 NNE 1014,0 - 0 0,0
18.10.2017 19:00:00 16,7 10,5 10,9 14,5 15,4 2 1 4 2 N 1013,5 - 22 0,0
18.10.2017 18:00:00 19,4 10,4 16,7 14,4 15,4 0 0 16 9 N 1013,0 - 35 0,0
18.10.2017 17:00:00 21,9 8,7 23,1 14,2 15,4 8 4 23 12 SSW 1013,0 20 60 0,0
18.10.2017 16:00:00 22,5 8,6 24,2 14,1 15,4 8 4 18 10 WSW 1013,2 20 60 0,0
18.10.2017 15:00:00 22,1 8,9 26,2 14,0 15,4 9 5 23 12 SW 1013,6 20 60 0,0
18.10.2017 14:00:00 21,5 8,0 27,3 13,9 15,4 10 5 27 15 SW 1014,3 - 60 0,0
18.10.2017 13:00:00 20,7 7,0 26,5 13,9 15,4 13 7 24 13 SSW 1015,3 - 60 0,0
18.10.2017 12:00:00 20,1 6,8 26,5 13,9 15,4 10 5 24 13 SW 1015,8 20 60 0,0
18.10.2017 11:00:00 18,8 7,9 16,5 14,0 15,4 0 0 10 5 N 1016,1 20 60 0,0
18.10.2017 10:00:00 13,8 8,6 6,7 14,1 15,4 0 0 6 4 N 1017,0 20 60 0,0
18.10.2017 09:00:00 9,9 7,1 5,0 14,2 15,4 0 0 6 4 N 1017,6 - 17 0,0

tt = Température de l'air
td = dewpoint
tt 5cm = Température de l'air 5cm
tt -20cm = Température de l'air -20cm
tt -100cm = Température de l'air -100cm
ff = Vitesse du vent
fx = gusts
dd = Direction du vent
ppp = reduced air pressure
vv = visibility
sd = Ensoleillement
rr = Quantités de précipitations

stations d'obs. à proximité